• In Netherlands
  • List of Countries
  • For 7 days
  • Water Temperature
  • Satellite Maps
  • Weather Map
  • Weather Widgets
  • user-avatar
    Login

    Hourly Weather Korçe

    Today, 21 February, Tuesday

    Time Temperature Precipitation Wind Pressure Humidity
    00:00 -1°C° 0 mm 1 mps 666 mmHg 91%
    01:00 -2°C° 0 mm 0 mps 666 mmHg 92%
    02:00 -2°C° 0 mm 0 mps 666 mmHg 92%
    03:00 -1°C° 0 mm 1 mps 665 mmHg 92%
    04:00 -1°C° 0 mm 1 mps 665 mmHg 92%
    05:00 -1°C° 0 mm 1 mps 665 mmHg 91%
    06:00 -1°C° 0 mm 1 mps 665 mmHg 89%
    07:00 0°C° 0 mm 1 mps 666 mmHg 84%
    08:00 +2°C° 0 mm 1 mps 666 mmHg 73%
    09:00 +4°C° 0 mm 1 mps 667 mmHg 63%
    10:00 +6°C° 0 mm 1 mps 667 mmHg 52%
    11:00 +7°C° 0 mm 1 mps 667 mmHg 49%
    12:00 +8°C° 0 mm 1 mps 667 mmHg 46%
    13:00 +7°C° 0 mm 2 mps 667 mmHg 43%
    14:00 +7°C° 0 mm 2 mps 667 mmHg 48%
    15:00 +6°C° 0 mm 2 mps 666 mmHg 53%
    16:00 +5°C° 0 mm 2 mps 666 mmHg 58%
    17:00 +3°C° 0 mm 2 mps 665 mmHg 66%
    18:00 +1°C° 0 mm 2 mps 665 mmHg 74%
    19:00 0°C° 0 mm 1 mps 664 mmHg 83%
    20:00 0°C° 0 mm 1 mps 665 mmHg 82%
    21:00 0°C° 0 mm 1 mps 665 mmHg 81%
    22:00 -1°C° 0 mm 1 mps 665 mmHg 79%
    23:00 -1°C° 0 mm 1 mps 665 mmHg 76%

    Tomorrow, 22 February, Wednesday

    Time Temperature Precipitation Wind Pressure Humidity
    00:00 0°C° 0 mm 1 mps 665 mmHg 73%
    01:00 0°C° 0 mm 1 mps 665 mmHg 70%
    02:00 0°C° 0 mm 1 mps 665 mmHg 70%
    03:00 -1°C° 0 mm 1 mps 665 mmHg 71%
    04:00 -1°C° 0 mm 1 mps 665 mmHg 71%
    05:00 0°C° 0 mm 1 mps 665 mmHg 71%
    06:00 0°C° 0 mm 1 mps 666 mmHg 70%
    07:00 +1°C° 0 mm 1 mps 666 mmHg 70%
    08:00 +2°C° 0 mm 0 mps 667 mmHg 62%
    09:00 +5°C° 0 mm 0 mps 668 mmHg 54%
    10:00 +8°C° 0 mm 0 mps 669 mmHg 46%
    11:00 +10°C° 0 mm 1 mps 669 mmHg 46%
    12:00 +10°C° 0 mm 1 mps 669 mmHg 47%
    13:00 +11°C° 0 mm 1 mps 669 mmHg 47%
    14:00 +10°C° 0 mm 1 mps 669 mmHg 54%
    15:00 +10°C° 0 mm 1 mps 668 mmHg 61%
    16:00 +9°C° 0 mm 1 mps 668 mmHg 67%
    17:00 +7°C° 0 mm 1 mps 668 mmHg 75%
    18:00 +5°C° 0 mm 1 mps 667 mmHg 82%
    19:00 +3°C° 0 mm 1 mps 667 mmHg 90%
    20:00 +2°C° 0 mm 1 mps 667 mmHg 91%
    21:00 +2°C° 0 mm 1 mps 667 mmHg 92%
    22:00 +2°C° 0 mm 1 mps 667 mmHg 93%
    23:00 +2°C° 0 mm 1 mps 667 mmHg 94%

    Day after tomorrow, 23 February, Thursday

    Time Temperature Precipitation Wind Pressure Humidity
    00:00 +2°C° 0 mm 1 mps 667 mmHg 94%
    01:00 +1°C° 0 mm 1 mps 667 mmHg 94%
    02:00 +1°C° 0 mm 1 mps 667 mmHg 94%
    03:00 +1°C° 0 mm 1 mps 666 mmHg 94%
    04:00 +1°C° 0 mm 1 mps 666 mmHg 94%
    05:00 +1°C° 0 mm 1 mps 666 mmHg 93%
    06:00 +1°C° 0 mm 1 mps 667 mmHg 92%
    07:00 +2°C° 0 mm 1 mps 667 mmHg 91%
    08:00 +4°C° 0 mm 1 mps 667 mmHg 81%
    09:00 +6°C° 0 mm 1 mps 668 mmHg 70%
    10:00 +9°C° 0 mm 1 mps 669 mmHg 60%
    11:00 +8°C° 0 mm 2 mps 669 mmHg 57%
    12:00 +9°C° 0 mm 2 mps 669 mmHg 55%
    13:00 +10°C° 0 mm 2 mps 668 mmHg 52%
    14:00 +9°C° 0 mm 2 mps 668 mmHg 56%
    15:00 +9°C° 0 mm 2 mps 668 mmHg 61%
    16:00 +8°C° 0 mm 2 mps 668 mmHg 65%
    17:00 +6°C° 0 mm 2 mps 667 mmHg 74%
    18:00 +4°C° 0 mm 2 mps 667 mmHg 82%
    19:00 +3°C° 0 mm 2 mps 667 mmHg 91%
    20:00 +2°C° 0 mm 2 mps 667 mmHg 92%
    21:00 +2°C° 0 mm 2 mps 667 mmHg 93%
    22:00 +2°C° 0 mm 2 mps 667 mmHg 95%
    23:00 +2°C° 0 mm 2 mps 667 mmHg 95%

    24 February, Friday

    Time Temperature Precipitation Wind Pressure Humidity
    00:00 +2°C° 0 mm 2 mps 667 mmHg 95%
    01:00 +2°C° 0 mm 2 mps 667 mmHg 95%
    02:00 +2°C° 0 mm 2 mps 666 mmHg 95%
    03:00 +2°C° 0 mm 2 mps 666 mmHg 95%
    04:00 +2°C° 0 mm 2 mps 666 mmHg 96%
    05:00 +2°C° 0 mm 2 mps 666 mmHg 95%
    06:00 +2°C° 0 mm 2 mps 666 mmHg 95%
    07:00 +2°C° 0 mm 2 mps 666 mmHg 95%
    08:00 +4°C° 0 mm 2 mps 667 mmHg 89%
    09:00 +5°C° 0 mm 3 mps 667 mmHg 82%
    10:00 +8°C° 0 mm 3 mps 668 mmHg 75%
    11:00 +9°C° 0 mm 3 mps 667 mmHg 72%
    12:00 +9°C° 0 mm 3 mps 667 mmHg 68%
    13:00 +10°C° 0 mm 3 mps 667 mmHg 65%
    14:00 +10°C° 0 mm 3 mps 667 mmHg 68%
    15:00 +9°C° 0 mm 3 mps 666 mmHg 72%
    16:00 +9°C° 0 mm 3 mps 666 mmHg 75%
    17:00 +8°C° 0 mm 3 mps 666 mmHg 81%
    18:00 +5°C° 0 mm 3 mps 665 mmHg 86%
    19:00 +4°C° 0 mm 4 mps 665 mmHg 92%
    20:00 +4°C° 0 mm 4 mps 665 mmHg 90%
    21:00 +3°C° 0 mm 4 mps 665 mmHg 87%
    22:00 +3°C° 0 mm 4 mps 665 mmHg 84%
    23:00 +4°C° 0.4 mm 4 mps 664 mmHg 85%

    25 February, Saturday

    Time Temperature Precipitation Wind Pressure Humidity
    00:00 +4°C° 0.4 mm 4 mps 664 mmHg 85%
    01:00 +4°C° 0.4 mm 4 mps 663 mmHg 85%
    02:00 +4°C° 0.5 mm 4 mps 663 mmHg 88%
    03:00 +4°C° 0.5 mm 4 mps 663 mmHg 90%
    04:00 +4°C° 0.5 mm 4 mps 662 mmHg 93%
    05:00 +4°C° 0.2 mm 3 mps 663 mmHg 94%
    06:00 +4°C° 0.2 mm 3 mps 663 mmHg 94%
    07:00 +4°C° 0.2 mm 3 mps 664 mmHg 95%
    08:00 +7°C° 0 mm 3 mps 665 mmHg 90%
    09:00 +8°C° 0 mm 2 mps 666 mmHg 84%
    10:00 +10°C° 0 mm 2 mps 667 mmHg 79%
    11:00 +10°C° 0.1 mm 2 mps 667 mmHg 77%
    12:00 +12°C° 0.1 mm 2 mps 667 mmHg 75%
    13:00 +12°C° 0.1 mm 2 mps 667 mmHg 72%
    14:00 +10°C° 0.1 mm 2 mps 667 mmHg 75%
    15:00 +9°C° 0.1 mm 2 mps 667 mmHg 78%
    16:00 +9°C° 0.1 mm 1 mps 667 mmHg 80%
    17:00 +8°C° 0 mm 1 mps 667 mmHg 83%
    18:00 +6°C° 0 mm 2 mps 668 mmHg 86%
    19:00 +5°C° 0 mm 2 mps 668 mmHg 88%
    20:00 +4°C° 0 mm 2 mps 668 mmHg 87%
    21:00 +3°C° 0 mm 2 mps 668 mmHg 87%
    22:00 +2°C° 0 mm 2 mps 668 mmHg 86%
    23:00 +2°C° 0 mm 2 mps 668 mmHg 85%

    26 February, Sunday

    Time Temperature Precipitation Wind Pressure Humidity
    00:00 +2°C° 0 mm 2 mps 668 mmHg 84%
    01:00 +1°C° 0 mm 2 mps 668 mmHg 83%
    02:00 +1°C° 0 mm 2 mps 668 mmHg 83%
    03:00 +1°C° 0 mm 2 mps 668 mmHg 83%
    04:00 +1°C° 0 mm 2 mps 668 mmHg 83%
    05:00 +1°C° 0 mm 2 mps 668 mmHg 82%
    06:00 +2°C° 0 mm 2 mps 668 mmHg 82%
    07:00 +2°C° 0 mm 2 mps 668 mmHg 82%
    08:00 +6°C° 0 mm 1 mps 669 mmHg 75%
    09:00 +8°C° 0 mm 1 mps 670 mmHg 69%
    10:00 +11°C° 0 mm 1 mps 671 mmHg 62%
    11:00 +12°C° 0 mm 1 mps 670 mmHg 61%
    12:00 +13°C° 0 mm 1 mps 670 mmHg 60%
    13:00 +13°C° 0 mm 1 mps 670 mmHg 59%
    14:00 +13°C° 0 mm 1 mps 670 mmHg 64%
    15:00 +12°C° 0 mm 1 mps 669 mmHg 69%
    16:00 +11°C° 0 mm 1 mps 669 mmHg 73%
    17:00 +10°C° 0 mm 1 mps 669 mmHg 80%
    18:00 +8°C° 0 mm 1 mps 668 mmHg 86%
    19:00 +6°C° 0 mm 1 mps 668 mmHg 93%
    20:00 +4°C° 0 mm 0 mps 668 mmHg 93%
    21:00 +4°C° 0 mm 0 mps 668 mmHg 94%
    22:00 +3°C° 0 mm 0 mps 668 mmHg 94%
    23:00 +3°C° 0 mm 0 mps 668 mmHg 95%
    Show more